Saint Bonnet de Bellac- Haute Vienne - France
Donnes mto: mardi, 06/03/2012
Date Horaire Temp. E. Hum. E. P.atmo. Pluie Vent Direction Direction Ensoleilleme Solaire P. de rose Temp au vent Rafales
06/03/2012 00:00 1,4 C 92 % 1024,5 hPa 0,0 mm 0,0 km/h (0 Bft) SO 225 0 min 0 W/m 0,2 C 1,4 C 2,9 km/h (1 Bft)
06/03/2012 00:10 1,4 C 92 % 1024,4 hPa 0,0 mm 0,0 km/h (0 Bft) SO 225 0 min 0 W/m 0,2 C 1,4 C 0,0 km/h (0 Bft)
06/03/2012 00:20 1,4 C 92 % 1024,5 hPa 0,0 mm 1,1 km/h (1 Bft) S-SO 202 0 min 0 W/m 0,2 C 1,4 C 6,5 km/h (2 Bft)
06/03/2012 00:30 1,3 C 93 % 1024,5 hPa 0,0 mm 0,4 km/h (0 Bft) SO 225 0 min 0 W/m 0,3 C 1,3 C 2,9 km/h (1 Bft)
06/03/2012 00:40 1,2 C 93 % 1024,5 hPa 0,0 mm 0,0 km/h (0 Bft) O-SO 247 0 min 0 W/m 0,2 C 1,2 C 0,0 km/h (0 Bft)
06/03/2012 00:50 1,2 C 93 % 1024,4 hPa 0,0 mm 0,0 km/h (0 Bft) O-SO 247 0 min 0 W/m 0,2 C 1,2 C 0,0 km/h (0 Bft)
06/03/2012 01:00 1,3 C 93 % 1024,4 hPa 0,0 mm 0,0 km/h (0 Bft) O-SO 247 0 min 0 W/m 0,3 C 1,3 C 0,0 km/h (0 Bft)
06/03/2012 01:10 1,4 C 93 % 1024,4 hPa 0,0 mm 0,4 km/h (0 Bft) O-SO 247 0 min 0 W/m 0,4 C 1,4 C 0,4 km/h (0 Bft)
06/03/2012 01:20 1,6 C 93 % 1024,3 hPa 0,0 mm 0,0 km/h (0 Bft) O-SO 247 0 min 0 W/m 0,6 C 1,6 C 0,0 km/h (0 Bft)
06/03/2012 01:30 1,8 C 94 % 1024,2 hPa 0,0 mm 0,4 km/h (0 Bft) SO 225 0 min 0 W/m 0,9 C 1,8 C 0,4 km/h (0 Bft)
06/03/2012 01:40 1,8 C 93 % 1024,1 hPa 0,0 mm 0,0 km/h (0 Bft) O-SO 247 0 min 0 W/m 0,8 C 1,8 C 0,0 km/h (0 Bft)
06/03/2012 01:50 1,7 C 93 % 1024,1 hPa 0,0 mm 0,0 km/h (0 Bft) SO 225 0 min 0 W/m 0,7 C 1,7 C 0,0 km/h (0 Bft)
06/03/2012 02:02 1,6 C 93 % 1024,1 hPa 0,0 mm 0,4 km/h (0 Bft) O-NO 292 0 min 0 W/m 0,6 C 1,6 C 0,4 km/h (0 Bft)
06/03/2012 02:10 1,5 C 93 % 1024,1 hPa 0,0 mm 0,0 km/h (0 Bft) SO 225 0 min 0 W/m 0,5 C 1,5 C 0,0 km/h (0 Bft)
06/03/2012 02:20 1,4 C 93 % 1024,0 hPa 0,0 mm 0,0 km/h (0 Bft) O-SO 247 0 min 0 W/m 0,4 C 1,4 C 0,0 km/h (0 Bft)
06/03/2012 02:30 1,3 C 93 % 1024,0 hPa 0,0 mm 0,0 km/h (0 Bft) O 270 0 min 0 W/m 0,3 C 1,3 C 0,0 km/h (0 Bft)
06/03/2012 02:40 1,1 C 93 % 1023,9 hPa 0,0 mm 0,0 km/h (0 Bft) O 270 0 min 0 W/m 0,1 C 1,1 C 0,0 km/h (0 Bft)
06/03/2012 02:50 0,9 C 93 % 1023,7 hPa 0,0 mm 0,0 km/h (0 Bft) SO 225 0 min 0 W/m -0,1 C 0,9 C 0,0 km/h (0 Bft)
06/03/2012 03:00 0,9 C 93 % 1023,7 hPa 0,0 mm 0,0 km/h (0 Bft) O-SO 247 0 min 0 W/m -0,1 C 0,9 C 0,0 km/h (0 Bft)
06/03/2012 03:10 0,8 C 93 % 1023,6 hPa 0,0 mm 0,4 km/h (0 Bft) SO 225 0 min 0 W/m -0,2 C 0,8 C 3,2 km/h (1 Bft)
06/03/2012 03:20 0,8 C 93 % 1023,6 hPa 0,0 mm 0,0 km/h (0 Bft) O-SO 247 0 min 0 W/m -0,2 C 0,8 C 0,0 km/h (0 Bft)
06/03/2012 03:30 0,6 C 93 % 1023,5 hPa 0,0 mm 0,0 km/h (0 Bft) O-SO 247 0 min 0 W/m -0,4 C 0,6 C 0,0 km/h (0 Bft)
06/03/2012 03:40 0,6 C 93 % 1023,4 hPa 0,0 mm 0,0 km/h (0 Bft) O-SO 247 0 min 0 W/m -0,4 C 0,6 C 0,0 km/h (0 Bft)
06/03/2012 03:50 0,6 C 93 % 1023,4 hPa 0,0 mm 2,2 km/h (1 Bft) O-SO 247 0 min 0 W/m -0,4 C 0,6 C 4,0 km/h (1 Bft)
06/03/2012 04:00 0,8 C 93 % 1023,3 hPa 0,0 mm 0,0 km/h (0 Bft) O-SO 247 0 min 0 W/m -0,2 C 0,8 C 0,0 km/h (0 Bft)
06/03/2012 04:10 0,9 C 94 % 1023,3 hPa 0,0 mm 1,8 km/h (1 Bft) O-SO 247 0 min 0 W/m 0,0 C 0,9 C 4,0 km/h (1 Bft)
06/03/2012 04:20 0,9 C 93 % 1023,4 hPa 0,0 mm 0,0 km/h (0 Bft) O-SO 247 0 min 0 W/m -0,1 C 0,9 C 0,0 km/h (0 Bft)
06/03/2012 04:30 0,9 C 94 % 1023,4 hPa 0,0 mm 0,0 km/h (0 Bft) SO 225 0 min 0 W/m 0,0 C 0,9 C 0,0 km/h (0 Bft)
06/03/2012 04:40 0,9 C 94 % 1023,4 hPa 0,0 mm 1,1 km/h (1 Bft) SO 225 0 min 0 W/m 0,0 C 0,9 C 4,0 km/h (1 Bft)
06/03/2012 04:50 0,9 C 94 % 1023,4 hPa 0,0 mm 0,4 km/h (0 Bft) O 270 0 min 0 W/m 0,0 C 0,9 C 1,4 km/h (1 Bft)
06/03/2012 05:00 1,1 C 94 % 1023,4 hPa 0,0 mm 0,0 km/h (0 Bft) O 270 0 min 0 W/m 0,2 C 1,1 C 0,0 km/h (0 Bft)
06/03/2012 05:10 1,0 C 94 % 1023,4 hPa 0,0 mm 0,0 km/h (0 Bft) O 270 0 min 0 W/m 0,1 C 1,0 C 0,0 km/h (0 Bft)
06/03/2012 05:20 1,0 C 94 % 1023,3 hPa 0,0 mm 0,0 km/h (0 Bft) O-SO 247 0 min 0 W/m 0,1 C 1,0 C 0,0 km/h (0 Bft)
06/03/2012 05:30 0,9 C 94 % 1023,4 hPa 0,0 mm 0,0 km/h (0 Bft) O 270 0 min 0 W/m 0,0 C 0,9 C 0,0 km/h (0 Bft)
06/03/2012 05:40 0,8 C 94 % 1023,4 hPa 0,0 mm 0,0 km/h (0 Bft) O 270 0 min 0 W/m -0,1 C 0,8 C 0,0 km/h (0 Bft)
06/03/2012 05:50 0,8 C 94 % 1023,4 hPa 0,0 mm 0,0 km/h (0 Bft) O-NO 292 0 min 0 W/m -0,1 C 0,8 C 0,0 km/h (0 Bft)
06/03/2012 06:00 0,7 C 94 % 1023,6 hPa 0,0 mm 0,7 km/h (0 Bft) O-NO 292 0 min 0 W/m -0,2 C 0,7 C 0,7 km/h (0 Bft)
06/03/2012 06:10 0,8 C 94 % 1023,7 hPa 0,0 mm 0,4 km/h (0 Bft) O-NO 292 0 min 0 W/m -0,1 C 0,8 C 3,2 km/h (1 Bft)
06/03/2012 06:20 0,8 C 94 % 1023,7 hPa 0,0 mm 1,1 km/h (1 Bft) NO 315 0 min 0 W/m -0,1 C 0,8 C 1,1 km/h (1 Bft)
06/03/2012 06:30 0,8 C 94 % 1023,8 hPa 0,0 mm 0,0 km/h (0 Bft) NO 315 0 min 0 W/m -0,1 C 0,8 C 0,0 km/h (0 Bft)
06/03/2012 06:40 0,8 C 94 % 1023,9 hPa 0,0 mm 2,5 km/h (1 Bft) NO 315 0 min 0 W/m -0,1 C 0,8 C 4,7 km/h (1 Bft)
06/03/2012 06:50 0,8 C 94 % 1023,9 hPa 0,0 mm 0,0 km/h (0 Bft) O-NO 292 0 min 0 W/m -0,1 C 0,8 C 0,0 km/h (0 Bft)
06/03/2012 07:00 0,8 C 94 % 1023,9 hPa 0,0 mm 0,0 km/h (0 Bft) NO 315 0 min 0 W/m -0,1 C 0,8 C 0,0 km/h (0 Bft)
06/03/2012 07:10 0,6 C 94 % 1024,0 hPa 0,0 mm 0,4 km/h (0 Bft) NO 315 0 min 0 W/m -0,3 C 0,6 C 4,0 km/h (1 Bft)
06/03/2012 07:20 0,6 C 94 % 1023,9 hPa 0,0 mm 0,0 km/h (0 Bft) NO 315 0 min 0 W/m -0,3 C 0,6 C 0,0 km/h (0 Bft)
06/03/2012 07:30 0,5 C 94 % 1023,9 hPa 0,0 mm 0,0 km/h (0 Bft) NO 315 0 min 0 W/m -0,4 C 0,5 C 0,0 km/h (0 Bft)
06/03/2012 07:40 0,4 C 94 % 1023,9 hPa 0,0 mm 0,0 km/h (0 Bft) O-NO 292 2 min 0 W/m -0,5 C 0,4 C 0,0 km/h (0 Bft)
06/03/2012 07:50 0,5 C 94 % 1024,0 hPa 0,0 mm 0,0 km/h (0 Bft) O 270 2 min 0 W/m -0,4 C 0,5 C 0,0 km/h (0 Bft)
06/03/2012 08:00 0,4 C 94 % 1024,0 hPa 0,0 mm 0,0 km/h (0 Bft) O 270 2 min 0 W/m -0,5 C 0,4 C 0,0 km/h (0 Bft)
06/03/2012 08:10 0,5 C 94 % 1023,9 hPa 0,1 mm 0,4 km/h (0 Bft) O 270 2 min 0 W/m -0,4 C 0,5 C 0,4 km/h (0 Bft)
06/03/2012 08:20 0,7 C 94 % 1024,1 hPa 0,0 mm 0,0 km/h (0 Bft) O 270 2 min 0 W/m -0,2 C 0,7 C 0,0 km/h (0 Bft)
06/03/2012 08:30 0,9 C 94 % 1024,1 hPa 0,0 mm 0,0 km/h (0 Bft) O 270 2 min 0 W/m 0,0 C 0,9 C 0,0 km/h (0 Bft)
06/03/2012 08:40 1,4 C 94 % 1024,3 hPa 0,0 mm 0,0 km/h (0 Bft) O 270 2 min 0 W/m 0,5 C 1,4 C 0,0 km/h (0 Bft)
06/03/2012 08:50 1,8 C 95 % 1024,3 hPa 0,0 mm 0,0 km/h (0 Bft) O 270 2 min 0 W/m 1,1 C 1,8 C 0,0 km/h (0 Bft)
06/03/2012 09:00 2,1 C 95 % 1024,2 hPa 0,0 mm 0,7 km/h (0 Bft) O 270 2 min 0 W/m 1,4 C 2,1 C 4,3 km/h (1 Bft)
06/03/2012 09:10 2,4 C 95 % 1024,2 hPa 0,0 mm 0,0 km/h (0 Bft) O 270 2 min 0 W/m 1,7 C 2,4 C 0,0 km/h (0 Bft)
06/03/2012 09:20 2,8 C 95 % 1024,3 hPa 0,0 mm 1,4 km/h (1 Bft) NO 315 2 min 0 W/m 2,1 C 2,8 C 4,0 km/h (1 Bft)
06/03/2012 09:30 3,4 C 95 % 1024,5 hPa 0,0 mm 0,4 km/h (0 Bft) O-NO 292 2 min 0 W/m 2,7 C 3,4 C 0,4 km/h (0 Bft)
06/03/2012 09:40 3,8 C 95 % 1024,7 hPa 0,0 mm 2,5 km/h (1 Bft) O 270 2 min 0 W/m 3,1 C 3,8 C 8,3 km/h (2 Bft)
06/03/2012 09:50 3,9 C 95 % 1024,7 hPa 0,0 mm 0,0 km/h (0 Bft) O 270 2 min 0 W/m 3,2 C 3,9 C 0,0 km/h (0 Bft)
06/03/2012 10:00 4,1 C 94 % 1024,7 hPa 0,0 mm 0,0 km/h (0 Bft) NO 315 2 min 0 W/m 3,2 C 4,1 C 0,0 km/h (0 Bft)
06/03/2012 10:10 4,6 C 94 % 1024,8 hPa 0,0 mm 6,1 km/h (2 Bft) NO 315 2 min 0 W/m 3,7 C 3,2 C 8,3 km/h (2 Bft)
06/03/2012 10:20 5,3 C 94 % 1024,8 hPa 0,0 mm 5,8 km/h (2 Bft) NO 315 2 min 0 W/m 4,4 C 4,1 C 6,8 km/h (2 Bft)
06/03/2012 10:30 6,2 C 92 % 1024,9 hPa 0,0 mm 3,6 km/h (1 Bft) NO 315 2 min 0 W/m 5,0 C 6,2 C 12,2 km/h (2 Bft)
06/03/2012 10:40 6,6 C 90 % 1025,0 hPa 0,0 mm 6,8 km/h (2 Bft) NO 315 2 min 0 W/m 5,1 C 5,3 C 11,5 km/h (2 Bft)
06/03/2012 10:50 7,0 C 88 % 1025,0 hPa 0,0 mm 1,1 km/h (1 Bft) N-NO 337 2 min 0 W/m 5,2 C 7,0 C 6,1 km/h (2 Bft)
06/03/2012 11:00 7,6 C 85 % 1025,1 hPa 0,0 mm 2,5 km/h (1 Bft) N-NE 22 2 min 0 W/m 5,2 C 7,6 C 4,3 km/h (1 Bft)
06/03/2012 11:10 7,8 C 83 % 1025,1 hPa 0,0 mm 2,2 km/h (1 Bft) NO 315 2 min 0 W/m 5,1 C 7,8 C 6,1 km/h (2 Bft)
06/03/2012 11:20 8,3 C 81 % 1025,1 hPa 0,0 mm 1,8 km/h (1 Bft) E-NE 67 2 min 0 W/m 5,2 C 8,3 C 6,5 km/h (2 Bft)
06/03/2012 11:30 8,9 C 78 % 1025,1 hPa 0,0 mm 5,8 km/h (2 Bft) NO 315 2 min 0 W/m 5,3 C 8,3 C 5,8 km/h (2 Bft)
06/03/2012 11:40 9,4 C 74 % 1025,2 hPa 0,0 mm 10,4 km/h (2 Bft) NO 315 2 min 0 W/m 5,0 C 7,8 C 10,8 km/h (2 Bft)
06/03/2012 11:50 9,4 C 72 % 1025,3 hPa 0,0 mm 2,5 km/h (1 Bft) O-NO 292 2 min 0 W/m 4,6 C 9,4 C 2,5 km/h (1 Bft)
06/03/2012 12:00 9,8 C 70 % 1025,3 hPa 0,0 mm 7,9 km/h (2 Bft) O 270 2 min 0 W/m 4,6 C 8,8 C 15,1 km/h (3 Bft)
06/03/2012 12:10 9,9 C 68 % 1025,4 hPa 0,0 mm 4,7 km/h (1 Bft) N-NO 337 2 min 0 W/m 4,3 C 9,7 C 7,9 km/h (2 Bft)
06/03/2012 12:20 9,5 C 67 % 1025,3 hPa 0,0 mm 4,3 km/h (1 Bft) NO 315 2 min 0 W/m 3,7 C 9,5 C 4,3 km/h (1 Bft)
06/03/2012 12:30 9,8 C 66 % 1025,4 hPa 0,0 mm 15,1 km/h (3 Bft) NO 315 2 min 0 W/m 3,8 C 7,7 C 25,9 km/h (4 Bft)
06/03/2012 12:40 9,9 C 63 % 1025,6 hPa 0,0 mm 8,6 km/h (2 Bft) N-NO 337 2 min 0 W/m 3,2 C 8,8 C 16,2 km/h (3 Bft)
06/03/2012 12:50 10,1 C 63 % 1025,6 hPa 0,0 mm 16,2 km/h (3 Bft) E-NE 67 2 min 0 W/m 3,4 C 10,1 C 24,1 km/h (4 Bft)
06/03/2012 13:00 10,3 C 62 % 1025,6 hPa 0,0 mm 3,2 km/h (1 Bft) NO 315 2 min 0 W/m 3,3 C 10,3 C 6,8 km/h (2 Bft)
06/03/2012 13:10 10,6 C 60 % 1025,4 hPa 0,0 mm 2,9 km/h (1 Bft) NO 315 2 min 0 W/m 3,2 C 10,6 C 6,8 km/h (2 Bft)
06/03/2012 13:20 10,6 C 57 % 1025,5 hPa 0,0 mm 5,0 km/h (1 Bft) O-SO 247 2 min 0 W/m 2,4 C 10,6 C 8,3 km/h (2 Bft)
06/03/2012 13:30 10,6 C 59 % 1025,5 hPa 0,0 mm 15,8 km/h (3 Bft) N-NO 337 2 min 0 W/m 2,9 C 10,6 C 24,5 km/h (4 Bft)
06/03/2012 13:40 10,6 C 55 % 1025,1 hPa 0,0 mm 2,9 km/h (1 Bft) N-NO 337 2 min 0 W/m 1,9 C 10,6 C 8,3 km/h (2 Bft)
06/03/2012 13:50 10,8 C 57 % 1024,9 hPa 0,0 mm 10,1 km/h (2 Bft) N-NO 337 2 min 0 W/m 2,6 C 10,8 C 16,6 km/h (3 Bft)
06/03/2012 14:00 10,8 C 54 % 1025,1 hPa 0,0 mm 9,7 km/h (2 Bft) N 360 2 min 0 W/m 1,9 C 10,8 C 13,0 km/h (3 Bft)
06/03/2012 14:10 10,8 C 53 % 1025,1 hPa 0,0 mm 9,7 km/h (2 Bft) O-SO 247 2 min 0 W/m 1,6 C 10,8 C 15,8 km/h (3 Bft)
06/03/2012 14:20 10,8 C 54 % 1024,9 hPa 0,0 mm 6,1 km/h (2 Bft) O-NO 292 2 min 0 W/m 1,9 C 10,8 C 6,8 km/h (2 Bft)
06/03/2012 14:30 10,8 C 53 % 1024,8 hPa 0,0 mm 4,0 km/h (1 Bft) NO 315 2 min 0 W/m 1,6 C 10,8 C 6,5 km/h (2 Bft)
06/03/2012 14:40 10,5 C 52 % 1024,7 hPa 0,0 mm 2,5 km/h (1 Bft) N 360 2 min 0 W/m 1,1 C 10,5 C 4,0 km/h (1 Bft)
06/03/2012 14:50 10,5 C 53 % 1024,6 hPa 0,0 mm 10,8 km/h (2 Bft) O-NO 292 2 min 0 W/m 1,3 C 10,5 C 14,4 km/h (3 Bft)
06/03/2012 15:00 10,3 C 53 % 1024,6 hPa 0,0 mm 7,6 km/h (2 Bft) O-NO 292 2 min 0 W/m 1,1 C 10,3 C 7,6 km/h (2 Bft)
06/03/2012 15:10 10,1 C 52 % 1024,5 hPa 0,0 mm 12,2 km/h (2 Bft) N-NO 337 2 min 0 W/m 0,7 C 10,1 C 13,7 km/h (3 Bft)
06/03/2012 15:20 9,7 C 51 % 1024,6 hPa 0,0 mm 2,2 km/h (1 Bft) N-NE 22 2 min 0 W/m 0,1 C 9,7 C 4,3 km/h (1 Bft)
06/03/2012 15:30 9,6 C 52 % 1024,5 hPa 0,0 mm 5,0 km/h (1 Bft) N-NE 22 2 min 0 W/m 0,2 C 9,3 C 9,7 km/h (2 Bft)
06/03/2012 15:40 9,6 C 52 % 1024,1 hPa 0,0 mm 8,3 km/h (2 Bft) N-NE 22 2 min 0 W/m 0,2 C 8,5 C 12,6 km/h (3 Bft)
06/03/2012 15:50 9,4 C 49 % 1024,2 hPa 0,0 mm 9,7 km/h (2 Bft) NO 315 2 min 0 W/m -0,8 C 8,0 C 12,2 km/h (2 Bft)
06/03/2012 16:00 9,3 C 51 % 1024,0 hPa 0,0 mm 4,0 km/h (1 Bft) N 360 2 min 0 W/m -0,3 C 9,3 C 10,1 km/h (2 Bft)
06/03/2012 16:10 9,3 C 52 % 1024,0 hPa 0,0 mm 6,1 km/h (2 Bft) NE 45 2 min 0 W/m -0,0 C 8,6 C 10,4 km/h (2 Bft)
06/03/2012 16:20 9,2 C 50 % 1024,0 hPa 0,0 mm 2,9 km/h (1 Bft) NE 45 2 min 0 W/m -0,7 C 9,2 C 8,3 km/h (2 Bft)
06/03/2012 16:30 8,9 C 51 % 1024,0 hPa 0,0 mm 2,9 km/h (1 Bft) N 360 2 min 0 W/m -0,7 C 8,9 C 7,9 km/h (2 Bft)
06/03/2012 16:40 8,4 C 52 % 1024,0 hPa 0,0 mm 0,7 km/h (0 Bft) N-NE 22 2 min 0 W/m -0,9 C 8,4 C 3,6 km/h (1 Bft)
06/03/2012 16:50 8,1 C 53 % 1024,0 hPa 0,0 mm 0,4 km/h (0 Bft) N 360 2 min 0 W/m -0,9 C 8,1 C 3,6 km/h (1 Bft)
06/03/2012 17:00 7,9 C 54 % 1024,0 hPa 0,0 mm 0,0 km/h (0 Bft) N-NE 22 2 min 0 W/m -0,8 C 7,9 C 1,4 km/h (1 Bft)
06/03/2012 17:10 7,9 C 54 % 1023,9 hPa 0,0 mm 4,7 km/h (1 Bft) N-NE 22 2 min 0 W/m -0,8 C 7,5 C 4,7 km/h (1 Bft)
06/03/2012 17:20 7,7 C 54 % 1024,0 hPa 0,0 mm 4,7 km/h (1 Bft) NO 315 2 min 0 W/m -1,0 C 7,3 C 7,2 km/h (2 Bft)
06/03/2012 17:30 7,4 C 54 % 1024,1 hPa 0,0 mm 3,2 km/h (1 Bft) N-NO 337 2 min 0 W/m -1,3 C 7,4 C 8,6 km/h (2 Bft)
06/03/2012 17:40 7,4 C 55 % 1024,1 hPa 0,0 mm 2,5 km/h (1 Bft) NO 315 2 min 0 W/m -1,0 C 7,4 C 4,0 km/h (1 Bft)
06/03/2012 17:50 7,4 C 55 % 1024,2 hPa 0,0 mm 4,0 km/h (1 Bft) O-NO 292 2 min 0 W/m -1,0 C 7,4 C 7,9 km/h (2 Bft)
06/03/2012 18:00 7,4 C 56 % 1024,2 hPa 0,0 mm 4,7 km/h (1 Bft) NO 315 2 min 0 W/m -0,8 C 6,9 C 7,6 km/h (2 Bft)
06/03/2012 18:10 7,4 C 56 % 1024,3 hPa 0,0 mm 6,1 km/h (2 Bft) N-NO 337 2 min 0 W/m -0,8 C 6,5 C 9,4 km/h (2 Bft)
06/03/2012 18:20 7,3 C 56 % 1024,4 hPa 0,0 mm 1,4 km/h (1 Bft) N-NO 337 2 min 0 W/m -0,9 C 7,3 C 1,4 km/h (1 Bft)
06/03/2012 18:30 7,2 C 57 % 1024,5 hPa 0,0 mm 0,7 km/h (0 Bft) N-NO 337 2 min 0 W/m -0,7 C 7,2 C 4,0 km/h (1 Bft)
06/03/2012 18:40 7,1 C 57 % 1024,6 hPa 0,0 mm 4,7 km/h (1 Bft) NE 45 2 min 0 W/m -0,8 C 6,6 C 8,6 km/h (2 Bft)
06/03/2012 18:50 6,9 C 58 % 1024,7 hPa 0,0 mm 7,6 km/h (2 Bft) N-NE 22 0 min 0 W/m -0,8 C 5,5 C 7,6 km/h (2 Bft)
06/03/2012 19:00 6,8 C 59 % 1024,8 hPa 0,0 mm 5,4 km/h (2 Bft) N-NE 22 0 min 0 W/m -0,6 C 6,0 C 9,0 km/h (2 Bft)
06/03/2012 19:10 6,6 C 60 % 1024,8 hPa 0,0 mm 0,7 km/h (0 Bft) NE 45 0 min 0 W/m -0,6 C 6,6 C 4,0 km/h (1 Bft)
06/03/2012 19:20 6,2 C 60 % 1024,9 hPa 0,0 mm 1,4 km/h (1 Bft) E-NE 67 0 min 0 W/m -1,0 C 6,2 C 6,8 km/h (2 Bft)
06/03/2012 19:30 5,8 C 61 % 1025,1 hPa 0,0 mm 0,0 km/h (0 Bft) N-NE 22 0 min 0 W/m -1,1 C 5,8 C 0,0 km/h (0 Bft)
06/03/2012 19:40 5,2 C 62 % 1025,3 hPa 0,0 mm 0,0 km/h (0 Bft) N-NE 22 0 min 0 W/m -1,5 C 5,2 C 0,0 km/h (0 Bft)
06/03/2012 19:50 4,6 C 63 % 1025,3 hPa 0,0 mm 0,0 km/h (0 Bft) N-NE 22 0 min 0 W/m -1,8 C 4,6 C 0,0 km/h (0 Bft)
06/03/2012 20:00 4,1 C 63 % 1025,3 hPa 0,0 mm 0,0 km/h (0 Bft) N 360 0 min 0 W/m -2,3 C 4,1 C 0,0 km/h (0 Bft)
06/03/2012 20:10 3,6 C 64 % 1025,5 hPa 0,0 mm 0,7 km/h (0 Bft) N-NE 22 0 min 0 W/m -2,6 C 3,6 C 0,7 km/h (0 Bft)
06/03/2012 20:20 3,4 C 67 % 1025,7 hPa 0,0 mm 2,5 km/h (1 Bft) N 360 0 min 0 W/m -2,1 C 3,4 C 4,3 km/h (1 Bft)
06/03/2012 20:30 3,3 C 68 % 1025,9 hPa 0,0 mm 2,2 km/h (1 Bft) NE 45 0 min 0 W/m -2,0 C 3,3 C 6,5 km/h (2 Bft)
06/03/2012 20:40 3,2 C 70 % 1026,1 hPa 0,0 mm 2,5 km/h (1 Bft) N-NE 22 0 min 0 W/m -1,7 C 3,2 C 7,2 km/h (2 Bft)
06/03/2012 20:50 3,1 C 72 % 1026,2 hPa 0,0 mm 0,0 km/h (0 Bft) N-NE 22 0 min 0 W/m -1,4 C 3,1 C 0,0 km/h (0 Bft)
_ Min-Heure 08:00 15:50 05:20 - 20:50 - - - - 20:10 08:00 20:50
Minimum _ 0,4 C 49 % 1023,3 hPa - 0,0 km/h (0 Bft) - - - - -2,6 C 0,4 C 0,0 km/h (0 Bft)
_ Max-Heure 14:30 09:50 20:50 08:10 12:50 - - 18:40 20:50 11:30 14:30 12:30
Maximum _ 10,8 C 95 % 1026,2 hPa 0,1 mm 16,2 km/h
E-NE (3 Bft)
- - 2 min 0 W/m 5,3 C 10,8 C 25,9 km/h
NO (4 Bft)
Moyenne _ 4,8 C 77 % 1024,4 hPa #0,1 mm 2,6 km/h (1 Bft) NO - #2:14 h 0 W/m 0,7 C 4,6 C 4,6 km/h (1 Bft)
Saint Bonnet de Bellac- Haute Vienne - France